sat.trackr.live / text

‹ back to catalog

CELTEE 1

NORAD 41850 · 2016-067C

PAYLOAD ACTIVE UNKNOWN

§ Identity

Operator
Country
US
Launch date
2016-11-11
Launch site
AFWTR
Launch vehicle
Mass (kg)
RCS (m²)
0.01

Purposes: tech_demo

External: N2YO · Heavens-Above · Gunter

§ Orbital elements

Epoch: 2026-09-09T22:16:46.734816Z

Period
94.71 min
Inclination
98.0534°
Eccentricity
0.0001043
Mean motion
15.20399374 rev/d
Perigee alt
503.9 km
Apogee alt
505.4 km
Semi-major
6,882.8 km
B*
2.1463e-4
RAAN
125.2640°
Arg perigee
51.2242°
Mean anomaly
308.9085°
Rev number
53,875

§ Raw data

CELTEE 11 41850U 16067C   26252.92831869  .00004599  00000+0  21463-3 0  99962 41850  98.0534 125.2640 0001043  51.2242 308.9085 15.20399374538757

JSON: /api/v1/satellites/41850 · /tle

For live sub-satellite position, see the globe view (requires WebGL).

§ Visibility from observer

Set your observer location to see the next 7 days of passes ≥ 10°. The values pass through the URL so the page stays shareable.

No JS? Fill the form by hand. The geolocation button needs JavaScript.